N7DTY Weather Reports


Display with metric or nautical units.
time (UTC)temp
F
wind
direction
speed
MPH
gust
MPH
rain 1hr
in
rain 24hr
in
rain mn
in
humidity
%
barometer
mb
20260506211556 55 166 3.0 7.0 0.00 0.00 0.00 81 1020.1
20260506210054 55 191 3.0 9.0 0.00 0.00 0.00 82 1020.1
20260506204552 55 229 4.0 8.0 0.00 0.00 0.00 81 1019.9
20260506203052 55 171 3.0 7.0 0.00 0.00 0.00 83 1019.8
20260506201547 54 192 2.0 6.0 0.00 0.00 0.00 85 1020.0
20260506200047 53 161 2.0 6.0 0.00 0.00 0.00 84 1019.9
20260506194548 54 180 1.0 7.0 0.00 0.00 0.00 85 1020.0
20260506193044 54 127 2.0 10.0 0.00 0.00 0.00 84 1019.9
20260506191543 54 173 4.0 7.0 0.00 0.00 0.00 84 1019.7
20260506190040 54 146 2.0 8.0 0.00 0.00 0.00 85 1019.6
20260506184549 53 176 2.0 7.0 0.00 0.00 0.00 87 1019.6
20260506183052 53 182 2.0 9.0 0.00 0.00 0.00 87 1019.7
20260506181607 53 196 2.0 9.0 0.00 0.00 0.00 86 1019.4
20260506180037 53 188 2.0 5.0 0.00 0.00 0.00 87 1019.5
20260506174536 52 194 4.0 9.0 0.00 0.00 0.00 87 1019.5
20260506173053 52 175 3.0 6.0 0.00 0.00 0.00 87 1019.3
20260506171535 52 193 3.0 6.0 0.00 0.00 0.00 87 1019.3
20260506170038 52 167 2.0 9.0 0.00 0.00 0.00 87 1019.2
20260506164537 52 170 1.0 7.0 0.00 0.00 0.00 87 1019.3
20260506163037 52 196 3.0 8.0 0.00 0.00 0.00 87 1019.3
20260506161530 52 172 3.0 8.0 0.00 0.00 0.00 87 1019.2
20260506160026 52 225 2.0 10.0 0.00 0.00 0.00 87 1019.4
20260506154524 52 202 4.0 10.0 0.00 0.00 0.00 86 1019.2
20260506153023 52 211 4.0 8.0 0.00 0.00 0.00 87 1019.2
20260506151521 52 208 3.0 10.0 0.00 0.00 0.00 88 1018.9
20260506150017 52 197 3.0 10.0 0.00 0.00 0.00 88 1018.6
20260506144520 52 196 2.0 11.0 0.00 0.00 0.00 87 1018.6
20260506143015 52 168 4.0 10.0 0.00 0.00 0.00 88 1018.5
20260506141513 52 183 4.0 9.0 0.00 0.00 0.00 87 1018.5
20260506140015 52 167 4.0 10.0 0.00 0.00 0.00 87 1018.6
20260506134507 0 0.0 0.0 0.00 0.00 0.00 1018.2
20260506133003 0 0.0 0.0 0.00 0.00 0.00 1017.8
20260506131600 52 182 3.0 12.0 0.00 0.00 0.00 87 1017.5
20260506130104 52 150 3.0 12.0 0.00 0.00 0.00 87 1017.7
20260506124608 52 186 4.0 12.0 0.00 0.00 0.00 87 1017.7
20260506123056 52 155 3.0 10.0 0.00 0.00 0.00 87 1017.9
20260506121556 52 184 4.0 12.0 0.00 0.00 0.00 87 1017.7
20260506120053 52 173 5.0 14.0 0.00 0.00 0.00 87 1017.4
20260506114553 52 188 5.0 11.0 0.00 0.00 0.00 87 1017.3
20260506113049 52 146 4.0 12.0 0.00 0.00 0.00 87 1017.2
20260506111547 52 180 4.0 12.0 0.00 0.00 0.00 87 1017.2
20260506110046 52 194 3.0 16.0 0.00 0.00 0.00 88 1017.1
20260506104544 52 176 3.0 10.0 0.00 0.00 0.00 88 1016.8
20260506103052 52 209 3.0 9.0 0.00 0.00 0.00 88 1016.6
20260506101540 52 207 4.0 10.0 0.00 0.00 0.00 87 1016.4
20260506100038 52 103 4.0 11.0 0.00 0.00 0.00 87 1016.2
20260506094538 52 155 5.0 13.0 0.00 0.00 0.00 87 1016.1
20260506093034 52 181 3.0 9.0 0.00 0.00 0.00 87 1016.0
20260506091534 52 136 4.0 14.0 0.00 0.00 0.00 87 1015.9
20260506090033 53 173 4.0 13.0 0.00 0.00 0.00 87 1015.9
20260506084529 53 161 4.0 13.0 0.00 0.00 0.00 87 1015.9
20260506083027 53 219 4.0 12.0 0.00 0.00 0.00 86 1015.8
20260506081524 53 171 5.0 12.0 0.00 0.00 0.00 87 1015.8
20260506073019 54 165 4.0 14.0 0.00 0.00 0.00 86 1015.5
20260506071515 54 177 2.0 10.0 0.00 0.00 0.00 86 1015.4
20260506061511 55 188 5.0 10.0 0.00 0.00 0.00 84 1015.1
20260506044510 56 147 3.0 10.0 0.00 0.00 0.00 81 1014.7
20260506043008 56 188 4.0 10.0 0.00 0.00 0.00 82 1014.5
20260506041507 57 178 3.0 12.0 0.00 0.00 0.00 81 1014.4
20260506040007 57 181 3.0 11.0 0.00 0.00 0.00 81 1014.2
20260506034517 57 174 4.0 10.0 0.00 0.00 0.00 81 1014.0
20260506033006 57 166 3.0 12.0 0.00 0.00 0.00 80 1014.0
20260506031505 57 80 3.0 12.0 0.00 0.00 0.00 80 1013.8
20260506030017 57 174 4.0 10.0 0.00 0.00 0.00 81 1013.6
20260506024510 57 192 4.0 12.0 0.00 0.00 0.00 81 1013.6
20260506023010 57 227 3.0 11.0 0.00 0.00 0.00 82 1013.8
20260506021503 58 189 5.0 10.0 0.00 0.00 0.00 81 1013.9
20260506020001 58 167 3.0 11.0 0.00 0.00 0.00 82 1013.8
20260506014600 58 180 2.0 8.0 0.00 0.00 0.00 82 1013.8
20260506013110 58 161 4.0 10.0 0.00 0.00 0.00 81 1013.9
20260506011609 59 134 3.0 8.0 0.00 0.00 0.00 80 1013.8
20260506010058 60 232 2.0 8.0 0.00 0.00 0.00 78 1013.8
20260506004557 59 168 3.0 10.0 0.00 0.00 0.00 79 1013.9
20260506003058 59 241 4.0 10.0 0.00 0.00 0.00 79 1013.9
20260506001557 60 191 4.0 10.0 0.00 0.00 0.00 78 1014.0
20260506000053 60 184 4.0 9.0 0.00 0.00 0.00 79 1014.2
20260505234552 60 195 3.0 10.0 0.00 0.00 0.00 79 1014.2
20260505233051 60 194 4.0 12.0 0.00 0.00 0.00 79 1014.4
20260505231550 60 176 5.0 10.0 0.00 0.00 0.00 78 1014.5
20260505230101 60 158 5.0 12.0 0.00 0.00 0.00 78 1014.6
20260505224548 60 198 5.0 11.0 0.00 0.00 0.00 78 1014.8
20260505223056 61 197 4.0 13.0 0.00 0.00 0.00 76 1014.9
20260505221548 61 177 4.0 12.0 0.00 0.00 0.00 77 1014.9
20260505220046 61 214 6.0 17.0 0.00 0.00 0.00 77 1015.0
20260505214546 61 191 5.0 9.0 0.00 0.00 0.00 77 1015.1
20260505213054 60 134 3.0 10.0 0.00 0.00 0.00 78 1015.1